2017-008AG

Last updated on Wed Mar 01 2017 00:15:03 GMT+0000 (Coordinated Universal Time)

1 41978U 17008AG 17059.22585330 .00001664 00000-0 76885-4 0 9990 2 41978 97.5095 120.8334 0008048 207.5135 152.5690 15.21589728 1805

Satellite not in orbit

2017-008AG